Regional Weather Roundup
Issued by NWS Midland/Odessa, TX

Home | Current Version | Previous Version | Text Only | Print | Product List | Glossary On
Versions: 1 2 3 4 5 6 7 8 9 10 11 12 13 14 15 16 17 18 19 20 21 22 23 24 25 26 27 28 29 30 31 32 33 34 35 36 37 38 39 40 41 42 43 44 45 46 47 48 49 50
000
ASUS44 KMAF 201910
RWRMAF
MIDLAND AREA WEATHER ROUNDUP
NATIONAL WEATHER SERVICE MIDLAND TX
200 PM CDT WED AUG 20 2014

...IN SOUTHWEST TEXAS AND SOUTHEAST NEW MEXICO...

CITY           SKY/WX    TMP DP  RH WIND       PRES   REMARKS
ALPINE         CLOUDY    80  59  49 SW9       30.13F
ANDREWS        FAIR      93  62  34 S12G23    29.96S
ARTESIA        SUNNY     91  52  25 SW14G25   29.93S
BIG SPRING     SUNNY     94  64  37 S10G23    29.97F
CARLSBAD       SUNNY     92  56  29 VRB6      29.92F
DRYDEN           N/A     97  65  34 E13G21    29.93F
FORT STOCKTON  SUNNY     91  58  32 SW12      29.96F
GUAD PASS      MOSUNNY   83  53  35 SW25G35   30.10F
HOBBS          MOSUNNY   90  57  33 S15G24    29.97F
MARFA          CLOUDY    79  57  47 SW7       30.13F
MIDLAND AIRPK  SUNNY     92  60  34 S13G20    29.95F
MIDLAND INTL   SUNNY     93  64  38 S18       29.95F
ODESSA         SUNNY     91  62  37 S15G22    29.96F
PECOS          SUNNY     95  54  25 S8G17     29.92F
PRESIDIO       FAIR      87  61  41 CALM      29.98F
SEMINOLE       PTSUNNY   91  57  32 SW14G23   29.97S
SNYDER         SUNNY     90  66  45 S16G23    29.95F
WINK           SUNNY     94  55  26 S13       29.92F
$$
...OTHER STATIONS IN TEXAS...

CITY           SKY/WX    TMP DP  RH WIND       PRES   REMARKS
ABILENE        SUNNY     93  65  39 S21G28    29.95F
AMARILLO       SUNNY     92  62  36 S18G26    29.93F
AUSTIN         MOSUNNY   98  67  36 SE17G25   29.94F HX 102
BROWNSVILLE    PTSUNNY   94  74  52 S23G30    29.94F HX 104
CORPUS CHRISTI PTSUNNY   95  74  50 SE24G31   29.94F HX 105
DALLAS FTW     MOSUNNY   94  68  42 S20G26    29.95F
DEL RIO        SUNNY     94  68  42 S16G25    29.90F
EL PASO        MOSUNNY   86  55  34 N8        30.01F
HOUSTON INT    PTSUNNY   94  75  54 SE14G21   29.97F HX 105
LUBBOCK        MOSUNNY   93  63  36 S16G24    29.95F
SAN ANGELO     SUNNY     92  67  43 S13       29.95F
SAN ANTONIO    MOSUNNY   97  66  36 S14       29.96F HX 100
WACO           SUNNY     96  68  39 S14       29.96F HX 101
WICHITA FALLS  NOT AVBL
$$
...OTHER LOCATIONS IN NEW MEXICO...

CITY           SKY/WX    TMP DP  RH WIND       PRES   REMARKS
ALAMAGORDO     SUNNY     82  55  39 N6        30.03F
ALBUQUERQUE    MOSUNNY   82  49  31 NE9       30.09F
CANNON AFB     MOSUNNY   90  55  30 SW9G22    29.97F
CLOVIS           N/A     91  55  29 S12G23    29.99S
HOLLOMAN AFB   SUNNY     84  54  34 VRB5      30.00F
ROSWELL        SUNNY     89  61  38 N5        29.93F
RUIDOSO        PTSUNNY   73  52  46 NE7       30.19F
SANTA FE       PTSUNNY   78  49  35 MISG      30.12F
TRUTH OR CONSE SUNNY     84  47  27 VRB6      30.06F
TUCUMCARI      SUNNY     94  51  23 S13       29.92S
$$


USA.gov is the U.S. government's official web portal to all federal, state and local government web resources and services.